QPF
0.00 0.01 0.00 0.00 0.00 0.00 0.00 0.00 0.00 0.00 0.01 0.01 0.00 0.00 0.00 0.00 0.00 0.01 0.01 0.01 0.01 0.01 0.03 0.01 0.01 0.01 0.01 0.01 0.02 0.01 0.01 0.01 0.01 0.02 0.02 0.02 0.03 0.03 0.03 0.03 0.02 0.03 0.03 0.04
0.00 0.00 0.00 0.00 0.00 0.01 0.00 0.00 0.00 0.00 0.01 0.01 0.01 0.00 0.00 0.00 0.00 0.00 0.00 0.01 0.01 0.01 0.01 0.01 0.01 0.00 0.00 0.00 0.01 0.01 0.01 0.01 0.01 0.02 0.02 0.02 0.03 0.03 0.03 0.03 0.02 0.02 0.02 0.03
0.00 0.00 0.00 0.01 0.01 0.01 0.00 0.01 0.01 0.01 0.01 0.00 0.00 0.00 0.00 0.00 0.00 0.01 0.01 0.00 0.01 0.01 0.01 0.01 0.00 0.00 0.00 0.00 0.00 0.01 0.02 0.02 0.02 0.02 0.02 0.02 0.01 0.02 0.02 0.02 0.02 0.02 0.02 0.02
0.00 0.00 0.00 0.01 0.03 0.02 0.02 0.02 0.03 0.03 0.02 0.01 0.01 0.00 0.00 0.00 0.00 0.00 0.01 0.00 0.00 0.01 0.01 0.01 0.01 0.00 0.00 0.00 0.01 0.01 0.03 0.03 0.02 0.02 0.02 0.02 0.02 0.02 0.02 0.03 0.02 0.03 0.02 0.03
0.00 0.00 0.01 0.02 0.02 0.01 0.01 0.04 0.04 0.03 0.01 0.00 0.00 0.00 0.00 0.00 0.00 0.00 0.00 0.00 0.00 0.00 0.01 0.01 0.01 0.01 0.01 0.01 0.01 0.01 0.03 0.03 0.03 0.03 0.03 0.03 0.03 0.03 0.03 0.03 0.02 0.02 0.02 0.03
0.01 0.01 0.03 0.05 0.01 0.00 0.00 0.01 0.01 0.00 0.00 0.00 0.00 0.01 0.01 0.01 0.01 0.00 0.00 0.00 0.00 0.00 0.01 0.01 0.01 0.02 0.01 0.01 0.01 0.01 0.01 0.02 0.02 0.03 0.03 0.03 0.02 0.02 0.02 0.02 0.03 0.03 0.03 0.04
0.01 0.01 0.01 0.01 0.00 0.00 0.01 0.01 0.01 0.00 0.00 0.01 0.01 0.01 0.01 0.01 0.00 0.01 0.01 0.01 0.00 0.00 0.01 0.01 0.01 0.02 0.02 0.01 0.01 0.01 0.02 0.02 0.02 0.03 0.03 0.03 0.03 0.03 0.03 0.03 0.03 0.04 0.04 0.04
0.01 0.01 0.01 0.00 0.00 0.01 0.01 0.01 0.01 0.01 0.01 0.01 0.01 0.01 0.01 0.01 0.00 0.00 0.00 0.01 0.01 0.01 0.01 0.02 0.02 0.02 0.03 0.02 0.02 0.03 0.04 0.05 0.04 0.04 0.04 0.04 0.05 0.04 0.04 0.04 0.04 0.04 0.04 0.04
0.01 0.01 0.01 0.01 0.01 0.01 0.01 0.01 0.01 0.01 0.01 0.02 0.02 0.01 0.01 0.01 0.00 0.00 0.00 0.00 0.00 0.01 0.01 0.02 0.02 0.02 0.03 0.03 0.02 0.01 0.02 0.03 0.03 0.04 0.05 0.06 0.07 0.07 0.07 0.08 0.06 0.05 0.05 0.04
0.02 0.01 0.01 0.01 0.01 0.01 0.00 0.01 0.01 0.01 0.02 0.02 0.02 0.02 0.01 0.01 0.01 0.01 0.00 0.00 0.00 0.01 0.01 0.01 0.01 0.01 0.02 0.02 0.02 0.01 0.01 0.02 0.03 0.03 0.03 0.04 0.05 0.05 0.06 0.07 0.07 0.06 0.05 0.04
0.01 0.01 0.01 0.01 0.01 0.00 0.00 0.00 0.01 0.00 0.01 0.01 0.01 0.01 0.01 0.01 0.01 0.01 0.01 0.01 0.00 0.01 0.02 0.02 0.02 0.02 0.02 0.01 0.02 0.02 0.02 0.03 0.04 0.03 0.04 0.05 0.06 0.07 0.07 0.07 0.06 0.06 0.04 0.04
0.02 0.02 0.03 0.02 0.01 0.01 0.00 0.01 0.01 0.01 0.00 0.00 0.01 0.01 0.01 0.01 0.01 0.01 0.01 0.01 0.01 0.01 0.02 0.02 0.02 0.02 0.02 0.02 0.02 0.03 0.03 0.03 0.03 0.04 0.04 0.05 0.06 0.07 0.08 0.07 0.07 0.06 0.04 0.04
0.03 0.03 0.03 0.02 0.01 0.01 0.01 0.01 0.01 0.02 0.01 0.02 0.02 0.02 0.01 0.01 0.01 0.01 0.01 0.02 0.01 0.02 0.02 0.03 0.03 0.03 0.03 0.02 0.02 0.03 0.03 0.03 0.03 0.03 0.04 0.04 0.05 0.07 0.08 0.08 0.08 0.07 0.05 0.04
0.04 0.04 0.04 0.04 0.02 0.01 0.01 0.00 0.01 0.01 0.02 0.02 0.03 0.02 0.01 0.02 0.02 0.02 0.03 0.03 0.03 0.04 0.04 0.04 0.04 0.03 0.03 0.03 0.03 0.02 0.02 0.03 0.03 0.04 0.05 0.06 0.07 0.08 0.08 0.08 0.08 0.08 0.05 0.04
0.02 0.03 0.06 0.04 0.02 0.01 0.01 0.01 0.01 0.01 0.03 0.05 0.06 0.04 0.04 0.04 0.04 0.05 0.05 0.05 0.06 0.08 0.09 0.08 0.06 0.05 0.04 0.04 0.04 0.03 0.04 0.04 0.04 0.04 0.05 0.07 0.08 0.08 0.08 0.09 0.07 0.06 0.05 0.03
0.02 0.02 0.02 0.02 0.02 0.01 0.01 0.01 0.01 0.01 0.02 0.04 0.07 0.07 0.06 0.07 0.07 0.07 0.07 0.06 0.07 0.07 0.07 0.06 0.06 0.06 0.06 0.07 0.06 0.06 0.07 0.06 0.05 0.04 0.04 0.05 0.05 0.06 0.07 0.07 0.07 0.07 0.05 0.03
0.02 0.02 0.02 0.02 0.03 0.03 0.03 0.02 0.02 0.03 0.05 0.08 0.08 0.08 0.09 0.08 0.08 0.09 0.09 0.08 0.06 0.06 0.06 0.08 0.11 0.09 0.07 0.11 0.12 0.09 0.09 0.09 0.07 0.06 0.06 0.07 0.06 0.07 0.07 0.06 0.06 0.07 0.07 0.07
0.02 0.02 0.02 0.02 0.04 0.06 0.06 0.04 0.04 0.03 0.05 0.06 0.07 0.07 0.11 0.11 0.10 0.11 0.11 0.10 0.08 0.07 0.06 0.06 0.09 0.12 0.09 0.09 0.13 0.09 0.08 0.08 0.06 0.06 0.06 0.08 0.10 0.07 0.05 0.04 0.05 0.05 0.05 0.05
0.03 0.03 0.02 0.02 0.04 0.05 0.06 0.05 0.05 0.05 0.04 0.05 0.08 0.10 0.12 0.14 0.14 0.13 0.13 0.12 0.10 0.08 0.06 0.05 0.04 0.05 0.05 0.04 0.05 0.05 0.03 0.03 0.04 0.04 0.05 0.08 0.11 0.07 0.06 0.06 0.05 0.05 0.04 0.04
0.02 0.02 0.03 0.03 0.03 0.03 0.03 0.04 0.05 0.05 0.04 0.05 0.09 0.10 0.10 0.11 0.11 0.09 0.09 0.09 0.06 0.04 0.03 0.02 0.02 0.03 0.04 0.03 0.03 0.03 0.02 0.02 0.03 0.04 0.05 0.06 0.06 0.06 0.05 0.04 0.05 0.04 0.04 0.03
0.03 0.03 0.04 0.03 0.02 0.02 0.02 0.02 0.02 0.03 0.02 0.03 0.05 0.06 0.05 0.05 0.04 0.03 0.03 0.04 0.03 0.03 0.02 0.01 0.02 0.02 0.03 0.05 0.06 0.04 0.04 0.04 0.03 0.03 0.04 0.04 0.04 0.05 0.05 0.04 0.04 0.03 0.03 0.02
0.05 0.04 0.04 0.03 0.02 0.03 0.02 0.02 0.02 0.02 0.02 0.02 0.03 0.04 0.03 0.03 0.02 0.02 0.02 0.03 0.02 0.02 0.01 0.01 0.01 0.02 0.03 0.04 0.04 0.03 0.02 0.02 0.02 0.02 0.02 0.03 0.03 0.03 0.02 0.03 0.04 0.03 0.02 0.02
0.05 0.05 0.04 0.03 0.03 0.03 0.03 0.02 0.02 0.02 0.02 0.02 0.02 0.03 0.03 0.02 0.01 0.01 0.02 0.03 0.02 0.02 0.01 0.01 0.01 0.02 0.02 0.03 0.03 0.02 0.01 0.01 0.02 0.02 0.02 0.02 0.03 0.03 0.03 0.02 0.03 0.03 0.03 0.02
0.05 0.05 0.04 0.03 0.03 0.03 0.03 0.02 0.02 0.02 0.02 0.02 0.02 0.02 0.02 0.02 0.02 0.02 0.02 0.03 0.03 0.03 0.01 0.01 0.01 0.02 0.02 0.02 0.02 0.02 0.02 0.01 0.01 0.02 0.02 0.02 0.03 0.03 0.03 0.03 0.03 0.03 0.02 0.02
0.04 0.04 0.03 0.03 0.03 0.03 0.03 0.02 0.02 0.02 0.03 0.02 0.02 0.01 0.01 0.02 0.02 0.03 0.03 0.03 0.05 0.05 0.02 0.02 0.03 0.02 0.01 0.01 0.02 0.02 0.02 0.02 0.01 0.02 0.02 0.02 0.03 0.03 0.04 0.03 0.03 0.03 0.03 0.03
0.03 0.04 0.04 0.04 0.04 0.04 0.03 0.03 0.03 0.03 0.03 0.03 0.03 0.02 0.02 0.02 0.02 0.03 0.04 0.04 0.05 0.06 0.03 0.02 0.03 0.02 0.01 0.01 0.01 0.01 0.01 0.01 0.02 0.02 0.02 0.02 0.02 0.03 0.04 0.05 0.05 0.05 0.05 0.05
0.03 0.05 0.06 0.05 0.04 0.04 0.04 0.04 0.04 0.04 0.04 0.04 0.05 0.04 0.03 0.02 0.02 0.04 0.05 0.06 0.06 0.04 0.02 0.02 0.02 0.02 0.02 0.02 0.02 0.02 0.02 0.02 0.02 0.02 0.02 0.03 0.03 0.03 0.04 0.05 0.06 0.06 0.05 0.04
MSLP
1007.30 1007.64 1007.86 1007.97 1008.00 1007.96 1007.87 1007.73 1007.52 1007.26 1006.94 1006.56 1006.15 1005.72 1005.31 1004.91 1004.55 1004.22 1003.91 1003.61 1003.31 1003.00 1002.70 1002.42 1002.20 1002.08 1002.10 1002.27 1002.61 1003.10 1003.71 1004.37 1005.04 1005.66 1006.19 1006.60 1006.89 1007.08 1007.21 1007.31 1007.42 1007.58 1007.80 1008.08
1007.10 1007.44 1007.60 1007.62 1007.52 1007.34 1007.12 1006.88 1006.63 1006.38 1006.14 1005.91 1005.68 1005.46 1005.26 1005.06 1004.87 1004.67 1004.46 1004.24 1004.00 1003.74 1003.49 1003.26 1003.10 1003.03 1003.08 1003.27 1003.60 1004.04 1004.57 1005.14 1005.71 1006.22 1006.66 1006.98 1007.21 1007.35 1007.43 1007.50 1007.57 1007.69 1007.85 1008.07
1007.11 1007.41 1007.51 1007.43 1007.22 1006.93 1006.60 1006.28 1006.00 1005.76 1005.58 1005.46 1005.38 1005.33 1005.29 1005.25 1005.19 1005.11 1005.00 1004.86 1004.68 1004.50 1004.33 1004.19 1004.10 1004.10 1004.20 1004.41 1004.72 1005.12 1005.57 1006.03 1006.47 1006.87 1007.18 1007.41 1007.55 1007.63 1007.66 1007.68 1007.72 1007.78 1007.90 1008.07
1007.29 1007.53 1007.55 1007.39 1007.10 1006.71 1006.31 1005.93 1005.62 1005.39 1005.26 1005.21 1005.24 1005.30 1005.39 1005.46 1005.51 1005.53 1005.50 1005.43 1005.34 1005.24 1005.16 1005.11 1005.11 1005.19 1005.35 1005.58 1005.88 1006.22 1006.58 1006.93 1007.25 1007.51 1007.70 1007.82 1007.87 1007.88 1007.86 1007.85 1007.85 1007.89 1007.97 1008.10
1007.48 1007.65 1007.61 1007.39 1007.03 1006.59 1006.14 1005.73 1005.40 1005.19 1005.09 1005.10 1005.19 1005.34 1005.51 1005.67 1005.80 1005.89 1005.94 1005.95 1005.94 1005.93 1005.94 1005.98 1006.08 1006.23 1006.44 1006.69 1006.97 1007.26 1007.53 1007.77 1007.96 1008.10 1008.17 1008.19 1008.17 1008.12 1008.07 1008.03 1008.01 1008.04 1008.10 1008.21
1007.50 1007.61 1007.52 1007.26 1006.87 1006.41 1005.95 1005.54 1005.22 1005.03 1004.96 1005.02 1005.16 1005.37 1005.61 1005.83 1006.03 1006.19 1006.31 1006.40 1006.48 1006.56 1006.66 1006.80 1006.98 1007.20 1007.44 1007.71 1007.96 1008.20 1008.39 1008.54 1008.62 1008.64 1008.62 1008.55 1008.47 1008.38 1008.31 1008.26 1008.25 1008.27 1008.34 1008.44
1007.17 1007.24 1007.13 1006.86 1006.48 1006.05 1005.61 1005.24 1004.96 1004.81 1004.79 1004.89 1005.09 1005.35 1005.65 1005.94 1006.21 1006.44 1006.64 1006.82 1006.98 1007.15 1007.34 1007.56 1007.81 1008.08 1008.36 1008.63 1008.86 1009.05 1009.17 1009.23 1009.23 1009.16 1009.06 1008.93 1008.81 1008.70 1008.62 1008.58 1008.59 1008.64 1008.72 1008.82
1006.43 1006.48 1006.37 1006.14 1005.82 1005.44 1005.08 1004.78 1004.57 1004.48 1004.53 1004.69 1004.95 1005.28 1005.64 1006.00 1006.34 1006.66 1006.94 1007.21 1007.46 1007.72 1007.99 1008.28 1008.59 1008.90 1009.20 1009.47 1009.68 1009.82 1009.89 1009.88 1009.81 1009.68 1009.53 1009.36 1009.21 1009.10 1009.03 1009.02 1009.05 1009.13 1009.24 1009.36
1005.34 1005.39 1005.33 1005.16 1004.93 1004.66 1004.40 1004.20 1004.09 1004.09 1004.22 1004.45 1004.78 1005.18 1005.62 1006.06 1006.49 1006.89 1007.26 1007.62 1007.96 1008.29 1008.64 1008.98 1009.33 1009.67 1009.98 1010.23 1010.42 1010.53 1010.56 1010.51 1010.38 1010.21 1010.02 1009.84 1009.68 1009.57 1009.52 1009.53 1009.59 1009.70 1009.83 1009.97
1004.08 1004.16 1004.15 1004.08 1003.96 1003.82 1003.69 1003.62 1003.62 1003.73 1003.95 1004.27 1004.68 1005.15 1005.66 1006.18 1006.69 1007.18 1007.64 1008.08 1008.49 1008.89 1009.28 1009.67 1010.04 1010.39 1010.69 1010.93 1011.10 1011.18 1011.17 1011.09 1010.94 1010.74 1010.54 1010.34 1010.18 1010.07 1010.04 1010.06 1010.14 1010.27 1010.42 1010.56
1002.88 1003.00 1003.07 1003.11 1003.12 1003.11 1003.13 1003.19 1003.31 1003.53 1003.84 1004.25 1004.73 1005.28 1005.86 1006.45 1007.03 1007.59 1008.12 1008.61 1009.08 1009.52 1009.94 1010.33 1010.70 1011.04 1011.32 1011.54 1011.68 1011.74 1011.71 1011.60 1011.44 1011.23 1011.01 1010.81 1010.65 1010.55 1010.51 1010.54 1010.63 1010.75 1010.90 1011.04
1001.97 1002.14 1002.29 1002.44 1002.57 1002.70 1002.85 1003.03 1003.28 1003.60 1004.00 1004.48 1005.02 1005.63 1006.26 1006.91 1007.54 1008.14 1008.71 1009.24 1009.72 1010.17 1010.58 1010.96 1011.30 1011.60 1011.85 1012.03 1012.14 1012.18 1012.13 1012.01 1011.84 1011.64 1011.42 1011.21 1011.05 1010.94 1010.89 1010.90 1010.97 1011.08 1011.21 1011.32
1001.46 1001.67 1001.90 1002.14 1002.39 1002.64 1002.91 1003.22 1003.56 1003.97 1004.44 1004.98 1005.58 1006.22 1006.89 1007.56 1008.21 1008.83 1009.41 1009.94 1010.41 1010.83 1011.21 1011.54 1011.83 1012.07 1012.27 1012.40 1012.48 1012.48 1012.42 1012.30 1012.14 1011.93 1011.72 1011.52 1011.34 1011.22 1011.15 1011.13 1011.17 1011.24 1011.33 1011.41
1001.35 1001.60 1001.89 1002.22 1002.56 1002.92 1003.29 1003.69 1004.13 1004.61 1005.14 1005.72 1006.35 1007.02 1007.70 1008.37 1009.02 1009.63 1010.19 1010.68 1011.11 1011.48 1011.79 1012.05 1012.27 1012.44 1012.57 1012.65 1012.68 1012.66 1012.59 1012.48 1012.32 1012.13 1011.92 1011.73 1011.55 1011.41 1011.31 1011.26 1011.25 1011.27 1011.31 1011.35
1001.52 1001.80 1002.15 1002.54 1002.97 1003.42 1003.88 1004.37 1004.88 1005.42 1006.00 1006.62 1007.27 1007.94 1008.61 1009.27 1009.90 1010.48 1011.00 1011.44 1011.81 1012.11 1012.34 1012.51 1012.64 1012.73 1012.79 1012.81 1012.80 1012.76 1012.68 1012.57 1012.42 1012.26 1012.07 1011.89 1011.71 1011.55 1011.43 1011.34 1011.29 1011.26 1011.25 1011.23
1001.82 1002.13 1002.53 1002.98 1003.48 1004.00 1004.55 1005.11 1005.69 1006.29 1006.91 1007.55 1008.21 1008.88 1009.55 1010.19 1010.79 1011.33 1011.80 1012.19 1012.49 1012.71 1012.86 1012.95 1012.99 1013.00 1012.98 1012.95 1012.90 1012.83 1012.75 1012.65 1012.52 1012.38 1012.22 1012.06 1011.89 1011.73 1011.58 1011.46 1011.37 1011.29 1011.23 1011.17
1002.14 1002.48 1002.91 1003.42 1003.99 1004.58 1005.20 1005.83 1006.47 1007.11 1007.77 1008.44 1009.11 1009.78 1010.43 1011.05 1011.62 1012.13 1012.55 1012.89 1013.13 1013.28 1013.36 1013.38 1013.35 1013.29 1013.21 1013.13 1013.04 1012.96 1012.88 1012.78 1012.68 1012.57 1012.44 1012.30 1012.14 1011.99 1011.83 1011.69 1011.56 1011.44 1011.34 1011.24
1002.41 1002.79 1003.27 1003.83 1004.46 1005.12 1005.80 1006.49 1007.18 1007.87 1008.56 1009.24 1009.92 1010.58 1011.22 1011.82 1012.37 1012.85 1013.24 1013.54 1013.74 1013.86 1013.89 1013.86 1013.78 1013.67 1013.55 1013.43 1013.31 1013.21 1013.12 1013.04 1012.96 1012.87 1012.77 1012.65 1012.51 1012.36 1012.21 1012.05 1011.89 1011.74 1011.60 1011.48
1002.71 1003.13 1003.66 1004.27 1004.96 1005.67 1006.41 1007.14 1007.86 1008.58 1009.28 1009.97 1010.64 1011.29 1011.91 1012.49 1013.02 1013.48 1013.86 1014.15 1014.34 1014.44 1014.46 1014.41 1014.31 1014.17 1014.03 1013.88 1013.75 1013.64 1013.54 1013.46 1013.39 1013.31 1013.22 1013.12 1013.00 1012.85 1012.70 1012.52 1012.35 1012.17 1012.01 1011.85
1003.16 1003.62 1004.20 1004.86 1005.59 1006.34 1007.11 1007.86 1008.60 1009.31 1010.00 1010.66 1011.31 1011.93 1012.52 1013.08 1013.59 1014.05 1014.42 1014.72 1014.92 1015.04 1015.07 1015.03 1014.94 1014.81 1014.66 1014.50 1014.36 1014.23 1014.12 1014.03 1013.95 1013.88 1013.79 1013.69 1013.57 1013.42 1013.25 1013.07 1012.87 1012.67 1012.48 1012.29
1003.88 1004.39 1005.01 1005.71 1006.46 1007.23 1007.99 1008.73 1009.44 1010.12 1010.76 1011.38 1011.97 1012.54 1013.09 1013.62 1014.11 1014.56 1014.94 1015.26 1015.49 1015.64 1015.72 1015.71 1015.65 1015.54 1015.40 1015.25 1015.10 1014.96 1014.84 1014.73 1014.63 1014.53 1014.43 1014.31 1014.17 1014.01 1013.82 1013.62 1013.39 1013.16 1012.94 1012.72
1004.93 1005.49 1006.14 1006.85 1007.60 1008.35 1009.08 1009.77 1010.42 1011.03 1011.60 1012.13 1012.65 1013.15 1013.64 1014.12 1014.58 1015.01 1015.41 1015.75 1016.02 1016.23 1016.35 1016.41 1016.39 1016.32 1016.21 1016.07 1015.92 1015.77 1015.62 1015.48 1015.35 1015.22 1015.09 1014.94 1014.77 1014.58 1014.37 1014.13 1013.87 1013.61 1013.34 1013.09
1006.27 1006.86 1007.52 1008.22 1008.94 1009.64 1010.31 1010.93 1011.49 1012.00 1012.47 1012.90 1013.32 1013.74 1014.15 1014.58 1015.00 1015.42 1015.82 1016.18 1016.50 1016.75 1016.94 1017.05 1017.09 1017.07 1016.99 1016.88 1016.73 1016.57 1016.41 1016.24 1016.07 1015.91 1015.73 1015.55 1015.35 1015.12 1014.87 1014.59 1014.30 1013.99 1013.68 1013.37
1007.76 1008.36 1009.00 1009.67 1010.33 1010.96 1011.55 1012.07 1012.53 1012.94 1013.30 1013.63 1013.95 1014.28 1014.62 1014.98 1015.36 1015.76 1016.15 1016.53 1016.88 1017.18 1017.42 1017.59 1017.69 1017.72 1017.68 1017.59 1017.47 1017.31 1017.13 1016.95 1016.76 1016.56 1016.35 1016.13 1015.89 1015.63 1015.34 1015.03 1014.69 1014.34 1013.97 1013.60
1009.18 1009.76 1010.37 1010.98 1011.58 1012.13 1012.62 1013.05 1013.41 1013.72 1013.99 1014.24 1014.48 1014.73 1015.00 1015.31 1015.65 1016.03 1016.41 1016.80 1017.16 1017.50 1017.77 1017.99 1018.14 1018.21 1018.22 1018.17 1018.06 1017.92 1017.76 1017.57 1017.37 1017.15 1016.93 1016.69 1016.43 1016.14 1015.82 1015.47 1015.09 1014.69 1014.27 1013.83
1010.33 1010.87 1011.43 1011.98 1012.49 1012.96 1013.38 1013.74 1014.04 1014.28 1014.49 1014.68 1014.87 1015.08 1015.31 1015.58 1015.89 1016.24 1016.60 1016.98 1017.35 1017.69 1017.99 1018.24 1018.42 1018.53 1018.58 1018.57 1018.50 1018.40 1018.26 1018.09 1017.91 1017.71 1017.49 1017.24 1016.98 1016.68 1016.34 1015.96 1015.55 1015.10 1014.62 1014.12
1011.10 1011.58 1012.07 1012.54 1013.00 1013.41 1013.77 1014.09 1014.36 1014.59 1014.78 1014.97 1015.15 1015.34 1015.56 1015.82 1016.10 1016.42 1016.77 1017.12 1017.47 1017.81 1018.11 1018.36 1018.56 1018.70 1018.79 1018.81 1018.80 1018.74 1018.65 1018.53 1018.39 1018.22 1018.03 1017.81 1017.56 1017.26 1016.92 1016.53 1016.08 1015.59 1015.05 1014.49
Thickness
5808 5817 5819 5818 5820 5823 5816 5814 5806 5809 5812 5819 5827 5827 5829 5829 5826 5823 5820 5819 5816 5813 5810 5809 5808 5806 5803 5800 5797 5794 5788 5782 5778 5775 5773 5769 5766 5763 5761 5758 5756 5753 5750 5747
5793 5807 5809 5806 5813 5814 5814 5816 5814 5813 5810 5826 5828 5828 5824 5821 5817 5813 5811 5810 5810 5807 5804 5802 5801 5800 5797 5794 5792 5788 5783 5778 5775 5771 5767 5764 5761 5758 5756 5753 5751 5748 5745 5742
5776 5793 5792 5783 5802 5806 5808 5815 5813 5802 5809 5821 5814 5809 5811 5811 5809 5806 5805 5804 5802 5800 5798 5797 5796 5794 5791 5789 5786 5781 5776 5773 5770 5767 5762 5760 5758 5754 5750 5747 5745 5742 5740 5737
5769 5771 5754 5788 5819 5816 5808 5810 5816 5814 5813 5813 5807 5808 5812 5811 5805 5801 5799 5798 5797 5795 5794 5794 5793 5790 5786 5783 5778 5774 5770 5767 5765 5761 5757 5755 5751 5748 5745 5742 5739 5736 5734 5731
5761 5755 5763 5789 5808 5809 5798 5795 5813 5808 5807 5808 5809 5804 5800 5804 5802 5797 5796 5795 5794 5793 5791 5787 5784 5782 5778 5775 5771 5767 5763 5760 5759 5756 5752 5749 5745 5742 5740 5736 5733 5731 5729 5725
5753 5742 5743 5774 5803 5815 5801 5780 5804 5803 5798 5798 5794 5776 5778 5793 5793 5791 5790 5789 5787 5786 5783 5778 5776 5772 5768 5765 5762 5759 5757 5755 5753 5751 5746 5743 5740 5737 5734 5731 5727 5725 5722 5719
5747 5743 5757 5785 5799 5797 5763 5765 5792 5794 5790 5787 5780 5777 5781 5786 5783 5781 5780 5779 5778 5775 5772 5769 5767 5762 5757 5756 5754 5754 5752 5750 5747 5744 5741 5738 5734 5731 5727 5723 5720 5717 5714 5711
5744 5737 5744 5782 5782 5768 5765 5780 5785 5784 5782 5776 5774 5776 5775 5773 5771 5770 5768 5767 5766 5762 5760 5759 5758 5754 5748 5746 5748 5747 5744 5741 5738 5736 5734 5732 5726 5723 5720 5716 5712 5708 5705 5701
5747 5748 5765 5776 5774 5776 5778 5772 5774 5775 5774 5770 5764 5763 5764 5762 5760 5759 5758 5756 5755 5751 5748 5748 5747 5745 5740 5739 5739 5737 5734 5731 5729 5727 5725 5723 5718 5714 5711 5708 5704 5700 5696 5692
5745 5753 5761 5766 5769 5771 5771 5767 5769 5768 5766 5762 5756 5755 5754 5752 5750 5748 5747 5746 5744 5741 5737 5735 5735 5734 5732 5731 5730 5727 5723 5721 5719 5717 5715 5713 5711 5708 5704 5700 5696 5693 5689 5685
5736 5744 5750 5755 5757 5758 5760 5761 5760 5760 5759 5755 5751 5748 5745 5741 5739 5737 5736 5735 5733 5730 5727 5725 5724 5723 5723 5722 5719 5716 5714 5712 5711 5709 5707 5703 5700 5697 5695 5692 5690 5686 5683 5680
5727 5737 5736 5738 5748 5752 5749 5749 5750 5748 5747 5747 5744 5739 5736 5732 5730 5728 5725 5724 5722 5721 5718 5716 5715 5714 5713 5713 5710 5706 5703 5702 5702 5701 5698 5694 5690 5686 5682 5681 5678 5676 5674 5670
5734 5739 5739 5741 5744 5744 5741 5742 5743 5741 5738 5735 5734 5731 5727 5723 5722 5720 5717 5715 5713 5711 5709 5707 5705 5704 5704 5704 5701 5697 5694 5693 5693 5692 5689 5686 5682 5678 5674 5669 5666 5664 5662 5659
5730 5731 5728 5728 5730 5734 5735 5736 5736 5734 5731 5727 5724 5722 5719 5715 5713 5710 5708 5706 5705 5702 5698 5697 5695 5694 5695 5694 5692 5689 5687 5685 5683 5682 5680 5678 5675 5672 5669 5665 5661 5657 5652 5647
5719 5722 5722 5724 5726 5726 5728 5726 5723 5721 5719 5716 5714 5711 5709 5705 5702 5700 5699 5698 5695 5691 5688 5687 5685 5683 5684 5683 5681 5679 5678 5676 5674 5673 5672 5669 5667 5665 5662 5659 5656 5652 5646 5638
5707 5713 5714 5713 5713 5715 5716 5715 5711 5709 5707 5705 5702 5700 5699 5697 5694 5692 5690 5688 5684 5681 5679 5676 5674 5674 5675 5673 5672 5670 5668 5665 5663 5663 5662 5659 5657 5654 5652 5650 5647 5643 5638 5633
5692 5695 5698 5698 5701 5702 5704 5704 5702 5699 5697 5695 5693 5691 5689 5686 5683 5681 5680 5679 5676 5673 5670 5667 5665 5666 5665 5664 5662 5661 5660 5657 5655 5654 5653 5650 5647 5645 5642 5640 5637 5634 5631 5628
5689 5692 5694 5693 5692 5691 5692 5694 5693 5690 5688 5687 5684 5682 5678 5675 5671 5669 5669 5668 5666 5663 5660 5659 5657 5655 5654 5653 5652 5651 5650 5649 5648 5646 5644 5641 5638 5637 5634 5632 5629 5626 5623 5620
5682 5685 5686 5686 5686 5686 5684 5684 5683 5681 5680 5678 5675 5671 5669 5666 5663 5661 5659 5656 5655 5652 5650 5649 5646 5646 5645 5644 5643 5642 5641 5640 5639 5637 5635 5632 5630 5629 5626 5624 5621 5619 5616 5612
5674 5676 5678 5679 5680 5679 5678 5677 5675 5673 5671 5670 5666 5663 5659 5657 5655 5653 5651 5648 5648 5647 5645 5642 5639 5638 5637 5635 5633 5635 5634 5633 5630 5628 5626 5624 5622 5620 5618 5616 5614 5611 5608 5604
5665 5666 5669 5670 5670 5671 5671 5670 5667 5665 5663 5661 5657 5653 5651 5649 5648 5647 5644 5641 5641 5640 5638 5635 5633 5631 5629 5626 5625 5628 5627 5625 5622 5620 5618 5617 5615 5613 5610 5608 5606 5604 5600 5597
5656 5658 5660 5660 5660 5660 5662 5662 5660 5658 5655 5652 5649 5647 5644 5642 5641 5639 5637 5635 5634 5630 5630 5629 5626 5622 5620 5619 5621 5621 5620 5618 5616 5613 5611 5609 5607 5605 5603 5601 5599 5596 5594 5592
5648 5649 5650 5650 5651 5651 5653 5652 5651 5649 5646 5644 5641 5640 5639 5637 5635 5632 5628 5629 5628 5623 5623 5621 5616 5613 5611 5613 5615 5615 5614 5611 5609 5607 5604 5602 5600 5598 5595 5593 5592 5590 5587 5584
5639 5639 5640 5641 5642 5641 5640 5642 5642 5641 5639 5637 5635 5634 5632 5630 5628 5628 5625 5621 5618 5615 5615 5611 5608 5607 5606 5608 5608 5608 5606 5604 5601 5600 5598 5596 5594 5591 5588 5587 5585 5583 5580 5577
5631 5632 5632 5632 5632 5632 5632 5632 5632 5631 5629 5628 5628 5626 5626 5623 5620 5619 5617 5614 5609 5608 5607 5605 5602 5601 5601 5602 5602 5600 5598 5596 5595 5593 5591 5589 5587 5584 5582 5580 5578 5576 5573 5570
5624 5624 5625 5625 5625 5625 5625 5625 5623 5622 5620 5619 5618 5617 5617 5615 5613 5611 5608 5607 5605 5602 5602 5600 5599 5596 5597 5597 5595 5593 5591 5589 5588 5586 5584 5582 5579 5577 5575 5573 5571 5568 5565 5562
5618 5618 5617 5618 5619 5620 5620 5619 5616 5615 5614 5612 5610 5610 5609 5608 5605 5603 5601 5600 5598 5597 5596 5594 5593 5592 5591 5590 5588 5586 5584 5582 5581 5578 5576 5573 5571 5569 5567 5564 5562 5560 5557 5555